Flag for Germany Weather past 2 weeks in Herten, North Rhine-Westphalia, Germany

Now
54 °F

Rain. Low clouds.


Feels Like: 54 °F
Forecast: 50 / 59 °F
Wind: 3 mph from Southwest

Location: Essen

Current Time: Sep 5, 2015 at 8:57:13 AM

Latest Report: Sep 5, 2015 at 8:00 AM


Visibility: 1 mi

Pressure: 29.96 "Hg

Humidity: 100%

Dew point: 54 °F

Location of HertenLocation

Historic Weather in Herten — Graph

°F

Herten temperature yesterday

Maximum temperature yesterday: 59 °F (at 3:00 PM)
Minimum temperature yesterday: 51 °F (at 7:00 AM)
Average temperature yesterday: 55 °F

Past Weeks' High & Low Weather Summary

 TemperatureHumidityPressure
High88 °F (Aug 31, 3:00 PM)100% (Aug 24, 5:00 AM)30.25 "Hg (Aug 24, 5:00 AM)
Low50 °F (Sep 2, 7:00 AM)30% (Aug 31, 6:00 PM)29.53 "Hg (Aug 24, 5:00 PM)
Average65 °F74%29.94 "Hg
* Reported Aug 21 7:00 AM — Sep 5 7:00 AM, Herten, Weather by CustomWeather, © 2015

Note: Actual official high and low records may vary slightly from our data, if they occured in-between our weather recording intervals... More about our weather records

Advertising

Herten weather history for previous 24 hours

 ConditionsComfort  
Time TempWeatherWind HumidityBarometerVisibility
7:00 AM
Sat, Sep 5
53 °FLight rain. Low clouds.5 mph100%29.95 "Hg2 mi
6:00 AM53 °FLow clouds.3 mph100%29.94 "Hg1 mi
5:00 AM53 °FLow clouds.3 mph100%29.94 "Hg2 mi
4:00 AM54 °FLow clouds.2 mph100%29.93 "Hg3 mi
3:00 AM53 °FDrizzle. Low clouds.5 mph99%29.93 "Hg3 mi
2:00 AM53 °FDrizzle. Low clouds.5 mph99%29.93 "Hg3 mi
1:00 AM53 °FLight freezing rain. Low clouds.5 mph97%29.93 "Hg7 mi
11:00 PM
Fri, Sep 4
53 °FRain. Low clouds.6 mph98%29.93 "Hg1 mi
10:00 PM53 °FRain. Low clouds.6 mph98%29.94 "Hg2 mi
9:00 PM55 °FLight rain. Low clouds.6 mph84%29.93 "Hg7 mi
8:00 PM57 °FOvercast.5 mph73%29.92 "Hg31 mi
7:00 PM58 °FOvercast.6 mph66%29.93 "Hg43 mi
6:00 PM59 °FOvercast.6 mph71%29.93 "Hg28 mi
5:00 PM57 °FLow clouds.5 mph78%29.94 "Hg25 mi
4:00 PM59 °FOvercast.7 mph67%29.94 "Hg28 mi
3:00 PM59 °FOvercast.6 mph69%29.96 "Hg22 mi
2:00 PM58 °FOvercast.6 mph70%29.96 "Hg22 mi
1:00 PM58 °FOvercast.6 mph73%29.96 "Hg22 mi
12:00 PM58 °FOvercast.7 mph70%29.97 "Hg19 mi
11:00 AM56 °FPassing clouds.7 mph76%29.97 "Hg12 mi
10:00 AM55 °FPassing clouds.5 mph79%29.96 "Hg15 mi
9:00 AM53 °FScattered clouds.3 mph87%29.97 "Hg8 mi
8:00 AM51 °FLow clouds.3 mph92%29.96 "Hg5 mi
Weather by CustomWeather, © 2015

See weather overviewHow to use our weather pages